Khon Kaen, Thailand

7:07 PM +07 on March 25, 2017 (GMT +0700)
Khon Kaen

Weather History for VTUK - November, 2012

Change the Weather History Date:

Thursday, November 8, 2012

  Actual Average Record
Temperature  
Mean Temperature 84 °F -  
Max Temperature 94 °F 86 °F - ()
Min Temperature 74 °F 66 °F - ()
Cooling Degree Days 19    
Growing Degree Days 34 (Base 50)    
Moisture  
Dew Point 74 °F    
Average Humidity 69    
Maximum Humidity 94    
Minimum Humidity 38    
Precipitation  
Precipitation 0.00 in 0.02 in - ()
Sea Level Pressure  
Sea Level Pressure 29.79 in    
Wind  
Wind Speed 1 mph ()    
Max Wind Speed 5 mph    
Max Gust Speed -    
Visibility 6.1 miles    
Events      
T = Trace of Precipitation, MM = Missing Value Source: Averaged Metar Reports

Daily Weather History Graph

Daily Weather History Graph

Search for Another Location

Airport or City:

Trip Planner

Search our weather history database for the weather conditions in past years. The results will help you decide how hot, cold, wet, or windy it might be!

Date:

Astronomy

Nov. 08, 2012 Rise Set
Actual Time 6:08 AM +07 5:35 PM +07
Civil Twilight 5:46 AM +07 5:58 PM +07
Nautical Twilight 5:20 AM +07 6:24 PM +07
Astronomical Twilight 4:54 AM +07 6:49 PM +07
Moon 12:27 AM +07 (11/8) 1:08 PM +07 (11/8)
Length of Visible Light 12h 11m
Length of Day
11h 26m
Last Quarter, 38% of the Moon is Illuminated
Nov 8
Last Quarter
Nov 14
New
Nov 20
First Quarter
Nov 28
Full
Dec 6
Last Quarter

Hourly Weather History & Observations

Time (+07) Temp. Heat Index Dew Point Humidity Pressure Visibility Wind Dir Wind Speed Gust Speed Precip Events Conditions
1:00 AM 78 °F - 72 °F 78% 29.79 in 6 mi Calm Calm - -   Clear
4:00 AM 75.2 °F - 73.4 °F 94% 29.80 in - Calm Calm - N/A   Clear
6:00 AM 75.2 °F - 73.4 °F 94% 29.83 in - Variable 1.2 mph - N/A   Clear
7:00 AM 76 °F - 74 °F 91% 29.83 in 6 mi East 3.5 mph - -   Clear
7:00 AM 77.0 °F - 73.4 °F 89% 29.86 in - Variable 1.2 mph - N/A   Clear
8:00 AM 80.6 °F 86.2 °F 75.2 °F 84% 29.86 in - Variable 2.3 mph - N/A   Clear
9:00 AM 84.2 °F 94.1 °F 77.0 °F 79% 29.86 in 5.6 mi East 3.5 mph - N/A   Unknown
10:00 AM 87.8 °F 99.7 °F 77.0 °F 70% 29.86 in 6.2 mi Calm Calm - N/A   Partly Cloudy
11:00 AM 89.6 °F 99.8 °F 75.2 °F 62% 29.86 in 6.2 mi Variable 2.3 mph - N/A   Scattered Clouds
12:00 PM 91.4 °F 102.5 °F 75.2 °F 59% 29.83 in 6.2 mi Variable 4.6 mph - N/A   Scattered Clouds
1:00 PM 93 °F - 71 °F 38% 29.76 in 6 mi South 3.5 mph - -   Mostly Cloudy
1:00 PM 91.4 °F 100.1 °F 73.4 °F 55% 29.77 in 6.2 mi South 3.5 mph - N/A   Mostly Cloudy
2:00 PM 93.2 °F 102.4 °F 73.4 °F 52% 29.74 in 6.2 mi ENE 3.5 mph - N/A   Mostly Cloudy
3:00 PM 93.2 °F 102.4 °F 73.4 °F 52% 29.74 in 6.2 mi Variable 2.3 mph - N/A   Scattered Clouds
4:00 PM 95.0 °F 104.5 °F 73.4 °F 49% 29.71 in 6.2 mi Calm Calm - N/A   Scattered Clouds
5:00 PM 93.2 °F 102.4 °F 73.4 °F 52% 29.71 in 6.2 mi Calm Calm - N/A   Scattered Clouds
6:00 PM 86.0 °F 95.1 °F 75.2 °F 70% 29.74 in 6.2 mi Variable 2.3 mph - N/A   Scattered Clouds
7:00 PM 86 °F - 72 °F 55% 29.73 in 6 mi East 2.3 mph - -   Scattered Clouds
7:00 PM 86.0 °F 95.1 °F 75.2 °F 70% 29.74 in 6.2 mi East 2.3 mph - N/A   Partly Cloudy
8:00 PM 82.4 °F 89.5 °F 75.2 °F 79% 29.77 in 6.2 mi Calm Calm - N/A   Partly Cloudy